TimeCDT,TemperatureF,Dew PointF,Humidity,Sea Level PressureIn,VisibilityMPH,Wind Direction,Wind SpeedMPH,Gust SpeedMPH,PrecipitationIn,Events,Conditions,WindDirDegrees,DateUTC
12:15 AM,78.4,60.1,53,30.15,10.0,SSE,15.0,-,N/A,,Unknown,160,2013-08-25 05:15:00
12:35 AM,78.1,60.3,54,30.15,10.0,SSE,15.0,-,N/A,,Unknown,160,2013-08-25 05:35:00
12:55 AM,78.1,59.9,53,30.16,10.0,SSE,16.1,-,N/A,,Unknown,160,2013-08-25 05:55:00
1:15 AM,77.5,59.4,53,30.16,10.0,SSE,15.0,-,N/A,,Unknown,160,2013-08-25 06:15:00
1:35 AM,76.8,59.2,54,30.17,10.0,South,13.8,-,N/A,,Unknown,170,2013-08-25 06:35:00
1:55 AM,76.5,59.4,55,30.17,10.0,South,11.5,-,N/A,,Unknown,170,2013-08-25 06:55:00
2:15 AM,75.2,59.5,58,30.18,10.0,South,10.4,-,N/A,,Unknown,180,2013-08-25 07:15:00
2:35 AM,74.5,59.7,60,30.18,10.0,South,8.1,-,N/A,,Unknown,170,2013-08-25 07:35:00
2:55 AM,73.6,59.9,62,30.18,10.0,South,8.1,-,N/A,,Unknown,180,2013-08-25 07:55:00
3:15 AM,72.7,59.7,64,30.18,10.0,South,5.8,-,N/A,,Unknown,190,2013-08-25 08:15:00
3:35 AM,72.3,59.9,65,30.18,10.0,South,8.1,-,N/A,,Unknown,170,2013-08-25 08:35:00
3:55 AM,70.7,59.9,69,30.18,10.0,South,6.9,-,N/A,,Unknown,170,2013-08-25 08:55:00
4:15 AM,69.8,60.3,72,30.18,10.0,SSE,6.9,-,N/A,,Unknown,160,2013-08-25 09:15:00
4:35 AM,69.3,60.1,72,30.18,10.0,SSE,6.9,-,N/A,,Unknown,160,2013-08-25 09:35:00
4:55 AM,69.8,60.4,72,30.18,10.0,SSE,6.9,-,N/A,,Unknown,160,2013-08-25 09:55:00
5:15 AM,69.3,60.4,73,30.18,10.0,SE,6.9,-,N/A,,Unknown,140,2013-08-25 10:15:00
5:35 AM,68.0,60.4,77,30.18,10.0,SE,8.1,-,N/A,,Unknown,140,2013-08-25 10:35:00
5:55 AM,67.6,60.3,77,30.19,10.0,SSE,6.9,-,N/A,,Unknown,150,2013-08-25 10:55:00
6:15 AM,67.5,60.4,78,30.19,10.0,SSE,8.1,-,N/A,,Unknown,150,2013-08-25 11:15:00
6:35 AM,67.5,60.6,79,30.19,10.0,SSE,6.9,-,N/A,,Unknown,160,2013-08-25 11:35:00
6:55 AM,66.2,59.9,80,30.20,10.0,South,4.6,-,N/A,,Unknown,170,2013-08-25 11:55:00
7:15 AM,65.7,60.3,83,30.21,10.0,SSE,5.8,-,N/A,,Unknown,150,2013-08-25 12:15:00
7:35 AM,66.2,60.3,81,30.21,10.0,SSE,6.9,-,N/A,,Unknown,150,2013-08-25 12:35:00
7:55 AM,68.2,61.3,79,30.22,10.0,SSE,6.9,-,N/A,,Unknown,150,2013-08-25 12:55:00
8:15 AM,70.9,62.1,74,30.22,10.0,SSE,8.1,-,N/A,,Unknown,160,2013-08-25 13:15:00
8:35 AM,73.8,62.2,67,30.22,10.0,South,10.4,-,N/A,,Unknown,170,2013-08-25 13:35:00
8:55 AM,76.6,62.2,61,30.22,10.0,South,10.4,-,N/A,,Unknown,180,2013-08-25 13:55:00
9:15 AM,78.8,61.9,56,30.22,10.0,South,13.8,-,N/A,,Unknown,180,2013-08-25 14:15:00
9:35 AM,81.3,61.3,51,30.22,10.0,South,15.0,-,N/A,,Unknown,190,2013-08-25 14:35:00
9:55 AM,83.3,60.3,46,30.22,10.0,South,19.6,24.2,N/A,,Unknown,190,2013-08-25 14:55:00
10:15 AM,84.6,60.1,43,30.23,10.0,South,19.6,-,N/A,,Unknown,190,2013-08-25 15:15:00
10:35 AM,86.4,59.7,40,30.23,10.0,South,16.1,-,N/A,,Unknown,190,2013-08-25 15:35:00
10:55 AM,87.3,59.9,40,30.23,10.0,SSW,16.1,-,N/A,,Unknown,200,2013-08-25 15:55:00
11:15 AM,88.2,59.7,38,30.23,10.0,SSW,13.8,-,N/A,,Unknown,210,2013-08-25 16:15:00
11:35 AM,88.9,59.7,37,30.22,10.0,SSW,15.0,23.0,N/A,,Unknown,210,2013-08-25 16:35:00
11:55 AM,90.3,59.2,35,30.22,10.0,SW,13.8,21.9,N/A,,Unknown,230,2013-08-25 16:55:00
12:15 PM,91.4,58.5,33,30.21,10.0,SW,13.8,20.7,N/A,,Unknown,220,2013-08-25 17:15:00
12:35 PM,91.9,57.6,31,30.20,10.0,SSW,11.5,19.6,N/A,,Unknown,200,2013-08-25 17:35:00
12:55 PM,92.7,56.8,30,30.20,10.0,SSW,12.7,18.4,N/A,,Unknown,210,2013-08-25 17:55:00
1:15 PM,93.2,56.7,29,30.19,10.0,South,10.4,19.6,N/A,,Unknown,170,2013-08-25 18:15:00
1:35 PM,92.7,55.2,28,30.19,10.0,SW,9.2,17.3,N/A,,Unknown,220,2013-08-25 18:35:00
1:55 PM,94.3,55.8,27,30.18,10.0,South,11.5,17.3,N/A,,Unknown,170,2013-08-25 18:55:00
2:15 PM,93.7,55.4,27,30.18,10.0,South,9.2,-,N/A,,Unknown,170,2013-08-25 19:15:00
2:35 PM,92.8,55.2,28,30.18,10.0,South,10.4,17.3,N/A,,Unknown,170,2013-08-25 19:35:00
2:55 PM,93.0,55.0,28,30.17,10.0,SSE,8.1,-,N/A,,Unknown,150,2013-08-25 19:55:00
3:15 PM,93.2,55.4,28,30.17,10.0,South,12.7,-,N/A,,Unknown,170,2013-08-25 20:15:00
3:35 PM,93.9,55.4,27,30.16,10.0,South,12.7,-,N/A,,Unknown,190,2013-08-25 20:35:00
3:55 PM,95.0,55.2,26,30.15,10.0,SSE,11.5,15.0,N/A,,Unknown,160,2013-08-25 20:55:00
4:15 PM,93.6,55.4,28,30.15,10.0,South,17.3,21.9,N/A,,Unknown,170,2013-08-25 21:15:00
4:35 PM,92.3,55.2,28,30.14,10.0,SSE,11.5,18.4,N/A,,Unknown,150,2013-08-25 21:35:00
4:55 PM,93.6,55.0,27,30.14,10.0,SSE,17.3,23.0,N/A,,Unknown,150,2013-08-25 21:55:00
5:15 PM,94.5,54.9,26,30.14,10.0,South,18.4,23.0,N/A,,Unknown,170,2013-08-25 22:15:00
5:35 PM,93.2,54.9,27,30.14,10.0,SSE,18.4,25.3,N/A,,Unknown,160,2013-08-25 22:35:00
5:55 PM,93.2,54.5,27,30.14,10.0,SE,17.3,-,N/A,,Unknown,140,2013-08-25 22:55:00
6:15 PM,92.8,54.9,28,30.14,10.0,SSE,19.6,-,N/A,,Unknown,150,2013-08-25 23:15:00
6:35 PM,92.3,54.1,27,30.14,10.0,SE,17.3,24.2,N/A,,Unknown,140,2013-08-25 23:35:00
6:55 PM,91.6,54.0,28,30.14,10.0,SSE,16.1,25.3,N/A,,Unknown,150,2013-08-25 23:55:00
7:15 PM,90.5,53.6,28,30.13,10.0,SSE,20.7,24.2,N/A,,Unknown,150,2013-08-26 00:15:00
7:35 PM,89.1,54.9,31,30.13,10.0,SSE,19.6,24.2,N/A,,Unknown,150,2013-08-26 00:35:00
7:55 PM,88.0,55.2,33,30.14,10.0,SSE,16.1,20.7,N/A,,Unknown,150,2013-08-26 00:55:00
8:15 PM,86.2,56.1,36,30.14,10.0,SSE,12.7,-,N/A,,Unknown,150,2013-08-26 01:15:00
8:35 PM,84.6,57.6,40,30.15,10.0,SSE,12.7,-,N/A,,Unknown,150,2013-08-26 01:35:00
8:55 PM,83.7,58.1,42,30.15,10.0,SSE,11.5,-,N/A,,Unknown,150,2013-08-26 01:55:00
9:15 PM,82.6,58.3,43,30.16,10.0,SSE,11.5,-,N/A,,Unknown,150,2013-08-26 02:15:00
9:35 PM,81.5,58.6,46,30.17,10.0,SSE,10.4,-,N/A,,Unknown,150,2013-08-26 02:35:00
9:55 PM,79.9,58.6,48,30.17,10.0,SSE,9.2,-,N/A,,Unknown,150,2013-08-26 02:55:00
10:15 PM,78.3,58.8,51,30.18,7.0,SSE,8.1,-,N/A,,Unknown,150,2013-08-26 03:15:00
10:35 PM,77.5,59.2,53,30.18,10.0,SSE,9.2,-,N/A,,Unknown,150,2013-08-26 03:35:00
10:55 PM,76.5,59.2,55,30.19,10.0,SE,9.2,-,N/A,,Unknown,140,2013-08-26 03:55:00
11:15 PM,76.8,59.4,55,30.19,10.0,SSE,10.4,-,N/A,,Unknown,150,2013-08-26 04:15:00
11:35 PM,76.5,59.4,55,30.20,10.0,SSE,10.4,-,N/A,,Unknown,150,2013-08-26 04:35:00
11:55 PM,77.2,59.4,54,30.20,10.0,SSE,11.5,-,N/A,,Unknown,150,2013-08-26 04:55:00